Nantucket, MA

12:38 AM EST on January 19, 2017 (GMT -0500)
Nantucket Memorial

Weather History for KACK - December, 2013

Change the Weather History Date:

Thursday, December 26, 2013

  Actual Average Record
Temperature  
Mean Temperature 33 °F -  
Max Temperature 42 °F 41 °F 57 °F (2015)
Min Temperature 24 °F 26 °F 1 °F (1980)
Degree Days  
Heating Degree Days 32    
Moisture  
Dew Point 30 °F    
Average Humidity 79    
Maximum Humidity 93    
Minimum Humidity 59    
Precipitation  
Precipitation 0.22 in - - ()
Sea Level Pressure  
Sea Level Pressure 30.24 in    
Wind  
Wind Speed 8 mph (SW)    
Max Wind Speed 16 mph    
Max Gust Speed 25 mph    
Visibility 9 miles    
Events Rain    
Averages and records for this station are not official NWS values.
T = Trace of Precipitation, MM = Missing Value Source: NWS Daily Summary

Daily Weather History Graph

Daily Weather History Graph

Search for Another Location

Airport or City:

Trip Planner

Search our weather history database for the weather conditions in past years. The results will help you decide how hot, cold, wet, or windy it might be!

Date:

Astronomy

Dec. 26, 2013 Rise Set
Actual Time 7:04 AM EST 4:17 PM EST
Civil Twilight 6:33 AM EST 4:48 PM EST
Nautical Twilight 5:58 AM EST 5:23 PM EST
Astronomical Twilight 5:25 AM EST 5:57 PM EST
Moon 12:27 AM EST (12/26) 11:53 AM EST (12/26)
Length of Visible Light 10h 15m
Length of Day
9h 12m
Last Quarter, 38% of the Moon is Illuminated
Dec 26
Last Quarter
Jan 1
New
Jan 7
First Quarter
Jan 15
Full
Jan 24
Last Quarter

Hourly Weather History & Observations

Time (EST) Temp. Windchill Dew Point Humidity Pressure Visibility Wind Dir Wind Speed Gust Speed Precip Events Conditions
12:53 AM 26.1 °F - 19.0 °F 75% 30.48 in 10.0 mi Calm Calm - N/A   Overcast
1:53 AM 24.1 °F - 19.9 °F 84% 30.48 in 10.0 mi Calm Calm - N/A   Overcast
2:53 AM 27.0 °F - 21.0 °F 78% 30.48 in 10.0 mi Calm Calm - N/A   Overcast
3:53 AM 27.0 °F - 21.9 °F 81% 30.46 in 10.0 mi Calm Calm - N/A   Overcast
4:53 AM 28.9 °F 22.8 °F 21.9 °F 75% 30.43 in 10.0 mi ENE 5.8 mph - N/A   Overcast
5:53 AM 28.9 °F 23.9 °F 23.0 °F 78% 30.41 in 10.0 mi ENE 4.6 mph - N/A   Overcast
6:53 AM 36.0 °F 27.5 °F 24.1 °F 62% 30.40 in 10.0 mi South 12.7 mph - N/A   Overcast
7:53 AM 37.0 °F 27.7 °F 24.1 °F 59% 30.38 in 10.0 mi SSE 16.1 mph - N/A   Overcast
8:53 AM 39.0 °F 30.3 °F 27.0 °F 62% 30.36 in 10.0 mi SSE 16.1 mph - N/A   Scattered Clouds
9:53 AM 42.1 °F 34.2 °F 30.0 °F 62% 30.34 in 10.0 mi SSE 16.1 mph - N/A   Scattered Clouds
10:53 AM 41.0 °F 33.1 °F 32.0 °F 70% 30.28 in 10.0 mi SSE 15.0 mph - N/A   Overcast
11:26 AM 41.0 °F 32.8 °F 33.8 °F 76% 30.24 in 8.0 mi SE 16.1 mph 24.2 mph 0.00 in Rain Light Rain
11:53 AM 39.9 °F 32.5 °F 35.1 °F 83% 30.22 in 6.0 mi SE 12.7 mph - 0.00 in Rain Light Rain
12:53 PM 39.9 °F 32.5 °F 37.0 °F 89% 30.17 in 3.0 mi SSE 12.7 mph - 0.09 in Rain Rain
1:53 PM 41.0 °F 32.8 °F 39.0 °F 93% 30.07 in 4.0 mi ESE 16.1 mph - 0.10 in Rain Light Rain
2:24 PM 41.0 °F 33.1 °F 39.2 °F 93% 30.03 in 7.0 mi East 15.0 mph - 0.01 in Rain Light Rain
2:53 PM 42.1 °F 35.2 °F 39.9 °F 92% 30.02 in 10.0 mi ESE 12.7 mph - 0.01 in   Overcast
3:18 PM 42.8 °F 37.5 °F 39.2 °F 87% 30.04 in 7.0 mi West 9.2 mph - 0.02 in Rain Light Rain
3:45 PM 39.2 °F 30.8 °F 37.4 °F 93% 30.06 in 10.0 mi NW 15.0 mph - 0.02 in   Overcast
3:53 PM 39.0 °F 30.6 °F 37.0 °F 93% 30.06 in 10.0 mi NW 15.0 mph - 0.02 in   Overcast
4:53 PM 39.0 °F 34.8 °F 37.0 °F 93% 30.08 in 10.0 mi West 5.8 mph - N/A   Overcast
5:20 PM 39.2 °F 30.5 °F 35.6 °F 87% 30.10 in 10.0 mi WNW 16.1 mph 25.3 mph N/A   Overcast
5:53 PM 37.0 °F 28.1 °F 32.0 °F 82% 30.12 in 10.0 mi West 15.0 mph - N/A   Partly Cloudy
6:53 PM 36.0 °F 27.1 °F 28.9 °F 76% 30.15 in 10.0 mi West 13.8 mph 23.0 mph N/A   Clear
7:53 PM 34.0 °F 24.6 °F 28.0 °F 79% 30.18 in 10.0 mi WNW 13.8 mph 25.3 mph N/A   Clear
8:53 PM 32.0 °F 22.1 °F 25.0 °F 75% 30.20 in 10.0 mi WNW 13.8 mph - N/A   Clear
9:53 PM 32.0 °F 22.5 °F 25.0 °F 75% 30.21 in 10.0 mi WNW 12.7 mph - N/A   Clear
10:53 PM 30.9 °F 22.2 °F 24.1 °F 76% 30.22 in 10.0 mi WNW 10.4 mph - N/A   Clear
11:53 PM 32.0 °F 23.6 °F 24.1 °F 73% 30.21 in 10.0 mi WNW 10.4 mph - N/A   Clear